owner,sensor,date,latitude,longitude,sea_surface_height_above_sea_level,qcFlag 
TCOON,ioos:station:TCOON:057:1,2014-04-01T00:00:00Z,28.4460,-96.3961,3.698,1111122 
TCOON,ioos:station:TCOON:057:1,2014-04-01T01:00:00Z,28.4460,-96.3961,3.684,1111122 
TCOON,ioos:station:TCOON:057:1,2014-04-01T02:00:00Z,28.4460,-96.3961,3.649,1111122 
TCOON,ioos:station:TCOON:057:1,2014-04-01T03:00:00Z,28.4460,-96.3961,3.619,1111122 
TCOON,ioos:station:TCOON:057:1,2014-04-01T04:00:00Z,28.4460,-96.3961,3.597,1111122 
TCOON,ioos:station:TCOON:057:1,2014-04-01T05:00:00Z,28.4460,-96.3961,3.56,1111122 
TCOON,ioos:station:TCOON:057:1,2014-04-01T06:12:00Z,28.4460,-96.3961,3.574,1111122 
TCOON,ioos:station:TCOON:057:1,2014-04-01T07:00:00Z,28.4460,-96.3961,3.57,1111122 
TCOON,ioos:station:TCOON:057:1,2014-04-01T08:00:00Z,28.4460,-96.3961,3.607,1111122 
TCOON,ioos:station:TCOON:057:1,2014-04-01T09:00:00Z,28.4460,-96.3961,3.641,1111122 
TCOON,ioos:station:TCOON:057:1,2014-04-01T10:00:00Z,28.4460,-96.3961,3.672,1111122 
TCOON,ioos:station:TCOON:057:1,2014-04-01T11:00:00Z,28.4460,-96.3961,3.704,1111122 
TCOON,ioos:station:TCOON:057:1,2014-04-01T12:00:00Z,28.4460,-96.3961,3.74,1111122 
TCOON,ioos:station:TCOON:057:1,2014-04-01T13:00:00Z,28.4460,-96.3961,3.761,1111122 
TCOON,ioos:station:TCOON:057:1,2014-04-01T14:00:00Z,28.4460,-96.3961,3.771,1111122 
TCOON,ioos:station:TCOON:057:1,2014-04-01T15:00:00Z,28.4460,-96.3961,3.781,1111122 
TCOON,ioos:station:TCOON:057:1,2014-04-01T16:00:00Z,28.4460,-96.3961,3.775,1111122 
TCOON,ioos:station:TCOON:057:1,2014-04-01T17:00:00Z,28.4460,-96.3961,3.754,1111122 
TCOON,ioos:station:TCOON:057:1,2014-04-01T18:00:00Z,28.4460,-96.3961,3.74,1111122 
TCOON,ioos:station:TCOON:057:1,2014-04-01T19:00:00Z,28.4460,-96.3961,3.729,1111122 
TCOON,ioos:station:TCOON:057:1,2014-04-01T20:00:00Z,28.4460,-96.3961,3.727,1111122 
TCOON,ioos:station:TCOON:057:1,2014-04-01T21:00:00Z,28.4460,-96.3961,3.72,1111122 
TCOON,ioos:station:TCOON:057:1,2014-04-01T22:00:00Z,28.4460,-96.3961,3.711,1111122 
TCOON,ioos:station:TCOON:057:1,2014-04-01T23:00:00Z,28.4460,-96.3961,3.701,1111122 
TCOON,ioos:station:TCOON:057:1,2014-04-02T00:00:00Z,28.4460,-96.3961,3.673,1111122 
TCOON,ioos:station:TCOON:057:1,2014-04-02T01:00:00Z,28.4460,-96.3961,3.648,1111122 
TCOON,ioos:station:TCOON:057:1,2014-04-02T02:00:00Z,28.4460,-96.3961,3.608,1111122 
TCOON,ioos:station:TCOON:057:1,2014-04-02T03:00:00Z,28.4460,-96.3961,3.573,1111122 
TCOON,ioos:station:TCOON:057:1,2014-04-02T04:00:00Z,28.4460,-96.3961,3.542,1111122 
TCOON,ioos:station:TCOON:057:1,2014-04-02T05:00:00Z,28.4460,-96.3961,3.53,1111122 
TCOON,ioos:station:TCOON:057:1,2014-04-02T06:12:00Z,28.4460,-96.3961,3.51,1111122 
TCOON,ioos:station:TCOON:057:1,2014-04-02T07:00:00Z,28.4460,-96.3961,3.511,1111122 
TCOON,ioos:station:TCOON:057:1,2014-04-02T08:00:00Z,28.4460,-96.3961,3.532,1111122 
TCOON,ioos:station:TCOON:057:1,2014-04-02T09:00:00Z,28.4460,-96.3961,3.566,1111122 
TCOON,ioos:station:TCOON:057:1,2014-04-02T10:00:00Z,28.4460,-96.3961,3.606,1111122 
TCOON,ioos:station:TCOON:057:1,2014-04-02T11:00:00Z,28.4460,-96.3961,3.641,1111122 
TCOON,ioos:station:TCOON:057:1,2014-04-02T12:00:00Z,28.4460,-96.3961,3.659,1111122 
TCOON,ioos:station:TCOON:057:1,2014-04-02T13:00:00Z,28.4460,-96.3961,3.693,1111122 
TCOON,ioos:station:TCOON:057:1,2014-04-02T14:00:00Z,28.4460,-96.3961,3.729,1111122 
TCOON,ioos:station:TCOON:057:1,2014-04-02T15:00:00Z,28.4460,-96.3961,3.746,1111122 
TCOON,ioos:station:TCOON:057:1,2014-04-02T16:00:00Z,28.4460,-96.3961,3.757,1111122 
TCOON,ioos:station:TCOON:057:1,2014-04-02T17:00:00Z,28.4460,-96.3961,3.756,1111122 
TCOON,ioos:station:TCOON:057:1,2014-04-02T18:00:00Z,28.4460,-96.3961,3.742,1111122 
TCOON,ioos:station:TCOON:057:1,2014-04-02T19:00:00Z,28.4460,-96.3961,3.719,1111122 
TCOON,ioos:station:TCOON:057:1,2014-04-02T20:00:00Z,28.4460,-96.3961,3.716,1111122 
TCOON,ioos:station:TCOON:057:1,2014-04-02T21:00:00Z,28.4460,-96.3961,3.721,1111122 
TCOON,ioos:station:TCOON:057:1,2014-04-02T22:00:00Z,28.4460,-96.3961,3.712,1111122 
TCOON,ioos:station:TCOON:057:1,2014-04-02T23:00:00Z,28.4460,-96.3961,3.694,1111122 
TCOON,ioos:station:TCOON:057:1,2014-04-03T00:00:00Z,28.4460,-96.3961,3.671,1111122 
TCOON,ioos:station:TCOON:057:1,2014-04-03T01:00:00Z,28.4460,-96.3961,3.647,1111122 
TCOON,ioos:station:TCOON:057:1,2014-04-03T02:00:00Z,28.4460,-96.3961,3.602,1111122 
TCOON,ioos:station:TCOON:057:1,2014-04-03T03:00:00Z,28.4460,-96.3961,3.57,1111122 
TCOON,ioos:station:TCOON:057:1,2014-04-03T04:00:00Z,28.4460,-96.3961,3.547,1111122 
TCOON,ioos:station:TCOON:057:1,2014-04-03T05:00:00Z,28.4460,-96.3961,3.518,1111122 
TCOON,ioos:station:TCOON:057:1,2014-04-03T06:06:00Z,28.4460,-96.3961,3.48,1111122 
TCOON,ioos:station:TCOON:057:1,2014-04-03T07:00:00Z,28.4460,-96.3961,3.473,1111122 
TCOON,ioos:station:TCOON:057:1,2014-04-03T08:00:00Z,28.4460,-96.3961,3.493,1111122 
TCOON,ioos:station:TCOON:057:1,2014-04-03T09:00:00Z,28.4460,-96.3961,3.509,1111122 
TCOON,ioos:station:TCOON:057:1,2014-04-03T10:00:00Z,28.4460,-96.3961,3.556,1111122 
TCOON,ioos:station:TCOON:057:1,2014-04-03T11:00:00Z,28.4460,-96.3961,3.589,1111122 
TCOON,ioos:station:TCOON:057:1,2014-04-03T12:00:00Z,28.4460,-96.3961,3.629,1111122 
TCOON,ioos:station:TCOON:057:1,2014-04-03T13:00:00Z,28.4460,-96.3961,3.664,1111122 
TCOON,ioos:station:TCOON:057:1,2014-04-03T14:00:00Z,28.4460,-96.3961,3.705,1111122 
TCOON,ioos:station:TCOON:057:1,2014-04-03T15:00:00Z,28.4460,-96.3961,3.731,1111122 
TCOON,ioos:station:TCOON:057:1,2014-04-03T16:00:00Z,28.4460,-96.3961,3.755,1111122 
TCOON,ioos:station:TCOON:057:1,2014-04-03T17:00:00Z,28.4460,-96.3961,3.769,1111122 
TCOON,ioos:station:TCOON:057:1,2014-04-03T18:00:00Z,28.4460,-96.3961,3.786,1111122 
TCOON,ioos:station:TCOON:057:1,2014-04-03T19:00:00Z,28.4460,-96.3961,3.792,1111122 
TCOON,ioos:station:TCOON:057:1,2014-04-03T20:00:00Z,28.4460,-96.3961,3.801,1111122 
TCOON,ioos:station:TCOON:057:1,2014-04-03T21:00:00Z,28.4460,-96.3961,3.793,1111122 
TCOON,ioos:station:TCOON:057:1,2014-04-03T22:00:00Z,28.4460,-96.3961,3.792,1111122 
TCOON,ioos:station:TCOON:057:1,2014-04-03T23:00:00Z,28.4460,-96.3961,3.803,1111122 
TCOON,ioos:station:TCOON:057:1,2014-04-04T00:00:00Z,28.4460,-96.3961,3.775,1111122 
TCOON,ioos:station:TCOON:057:1,2014-04-04T01:00:00Z,28.4460,-96.3961,3.756,1111122 
TCOON,ioos:station:TCOON:057:1,2014-04-04T02:00:00Z,28.4460,-96.3961,3.721,1111122 
TCOON,ioos:station:TCOON:057:1,2014-04-04T03:00:00Z,28.4460,-96.3961,3.694,1111122 
TCOON,ioos:station:TCOON:057:1,2014-04-04T04:00:00Z,28.4460,-96.3961,3.694,1111122 
TCOON,ioos:station:TCOON:057:1,2014-04-04T05:00:00Z,28.4460,-96.3961,3.656,1111122 
TCOON,ioos:station:TCOON:057:1,2014-04-04T06:18:00Z,28.4460,-96.3961,3.62,1111122 
TCOON,ioos:station:TCOON:057:1,2014-04-04T07:00:00Z,28.4460,-96.3961,3.603,1111122 
TCOON,ioos:station:TCOON:057:1,2014-04-04T08:00:00Z,28.4460,-96.3961,3.603,1111122 
TCOON,ioos:station:TCOON:057:1,2014-04-04T09:00:00Z,28.4460,-96.3961,3.59,1111122 
TCOON,ioos:station:TCOON:057:1,2014-04-04T10:00:00Z,28.4460,-96.3961,3.605,1111122 
TCOON,ioos:station:TCOON:057:1,2014-04-04T11:00:00Z,28.4460,-96.3961,3.607,1111122 
TCOON,ioos:station:TCOON:057:1,2014-04-04T12:00:00Z,28.4460,-96.3961,3.653,1111122 
TCOON,ioos:station:TCOON:057:1,2014-04-04T13:00:00Z,28.4460,-96.3961,3.733,1111122 
TCOON,ioos:station:TCOON:057:1,2014-04-04T14:00:00Z,28.4460,-96.3961,3.847,1111122 
TCOON,ioos:station:TCOON:057:1,2014-04-04T15:00:00Z,28.4460,-96.3961,3.869,1111122 
TCOON,ioos:station:TCOON:057:1,2014-04-04T16:00:00Z,28.4460,-96.3961,3.842,1111122 
TCOON,ioos:station:TCOON:057:1,2014-04-04T17:00:00Z,28.4460,-96.3961,3.818,1111122 
TCOON,ioos:station:TCOON:057:1,2014-04-04T18:00:00Z,28.4460,-96.3961,3.798,1111122 
TCOON,ioos:station:TCOON:057:1,2014-04-04T19:00:00Z,28.4460,-96.3961,3.731,1111122 
TCOON,ioos:station:TCOON:057:1,2014-04-04T20:00:00Z,28.4460,-96.3961,3.694,1111122 
TCOON,ioos:station:TCOON:057:1,2014-04-04T21:00:00Z,28.4460,-96.3961,3.683,1111122 
TCOON,ioos:station:TCOON:057:1,2014-04-04T22:00:00Z,28.4460,-96.3961,3.677,1111122 
TCOON,ioos:station:TCOON:057:1,2014-04-04T23:00:00Z,28.4460,-96.3961,3.689,1111122 
TCOON,ioos:station:TCOON:057:1,2014-04-05T00:00:00Z,28.4460,-96.3961,3.712,1111122 
TCOON,ioos:station:TCOON:057:1,2014-04-05T01:00:00Z,28.4460,-96.3961,3.729,1111122 
TCOON,ioos:station:TCOON:057:1,2014-04-05T02:00:00Z,28.4460,-96.3961,3.691,1111122 
TCOON,ioos:station:TCOON:057:1,2014-04-05T03:00:00Z,28.4460,-96.3961,3.685,1111122 
TCOON,ioos:station:TCOON:057:1,2014-04-05T04:00:00Z,28.4460,-96.3961,3.655,1111122 
TCOON,ioos:station:TCOON:057:1,2014-04-05T05:00:00Z,28.4460,-96.3961,3.623,1111122 
TCOON,ioos:station:TCOON:057:1,2014-04-05T06:00:00Z,28.4460,-96.3961,3.597,1111122 
TCOON,ioos:station:TCOON:057:1,2014-04-05T07:00:00Z,28.4460,-96.3961,3.553,1111122 
TCOON,ioos:station:TCOON:057:1,2014-04-05T08:00:00Z,28.4460,-96.3961,3.555,1111122 
TCOON,ioos:station:TCOON:057:1,2014-04-05T09:00:00Z,28.4460,-96.3961,3.535,1111122 
TCOON,ioos:station:TCOON:057:1,2014-04-05T10:00:00Z,28.4460,-96.3961,3.528,1111122 
TCOON,ioos:station:TCOON:057:1,2014-04-05T11:00:00Z,28.4460,-96.3961,3.563,1111122 
TCOON,ioos:station:TCOON:057:1,2014-04-05T12:00:00Z,28.4460,-96.3961,3.606,1111122 
TCOON,ioos:station:TCOON:057:1,2014-04-05T13:00:00Z,28.4460,-96.3961,3.644,1111122 
TCOON,ioos:station:TCOON:057:1,2014-04-05T14:00:00Z,28.4460,-96.3961,3.684,1111122 
TCOON,ioos:station:TCOON:057:1,2014-04-05T15:00:00Z,28.4460,-96.3961,3.695,1111122 
TCOON,ioos:station:TCOON:057:1,2014-04-05T16:00:00Z,28.4460,-96.3961,3.713,1111122 
TCOON,ioos:station:TCOON:057:1,2014-04-05T17:00:00Z,28.4460,-96.3961,3.745,1111122 
TCOON,ioos:station:TCOON:057:1,2014-04-05T18:00:00Z,28.4460,-96.3961,3.786,1111122 
TCOON,ioos:station:TCOON:057:1,2014-04-05T19:00:00Z,28.4460,-96.3961,3.803,1111122 
TCOON,ioos:station:TCOON:057:1,2014-04-05T20:00:00Z,28.4460,-96.3961,3.826,1111122 
TCOON,ioos:station:TCOON:057:1,2014-04-05T21:00:00Z,28.4460,-96.3961,3.836,1111122 
TCOON,ioos:station:TCOON:057:1,2014-04-05T22:00:00Z,28.4460,-96.3961,3.852,1111122 
TCOON,ioos:station:TCOON:057:1,2014-04-05T23:00:00Z,28.4460,-96.3961,3.862,1111122 
TCOON,ioos:station:TCOON:057:1,2014-04-06T00:00:00Z,28.4460,-96.3961,3.875,1111122 
TCOON,ioos:station:TCOON:057:1,2014-04-06T01:00:00Z,28.4460,-96.3961,3.884,1111122 
TCOON,ioos:station:TCOON:057:1,2014-04-06T02:00:00Z,28.4460,-96.3961,3.878,1111122 
TCOON,ioos:station:TCOON:057:1,2014-04-06T03:00:00Z,28.4460,-96.3961,3.866,1111122 
TCOON,ioos:station:TCOON:057:1,2014-04-06T04:00:00Z,28.4460,-96.3961,3.835,1111122 
TCOON,ioos:station:TCOON:057:1,2014-04-06T05:00:00Z,28.4460,-96.3961,3.807,1111122 
TCOON,ioos:station:TCOON:057:1,2014-04-06T06:06:00Z,28.4460,-96.3961,3.772,1111122 
TCOON,ioos:station:TCOON:057:1,2014-04-06T07:00:00Z,28.4460,-96.3961,3.738,1111122 
TCOON,ioos:station:TCOON:057:1,2014-04-06T08:00:00Z,28.4460,-96.3961,3.721,1111122 
TCOON,ioos:station:TCOON:057:1,2014-04-06T10:00:00Z,28.4460,-96.3961,3.688,1111122 
TCOON,ioos:station:TCOON:057:1,2014-04-06T12:00:00Z,28.4460,-96.3961,3.71,1111122 
TCOON,ioos:station:TCOON:057:1,2014-04-06T13:30:00Z,28.4460,-96.3961,3.735,1111122 
TCOON,ioos:station:TCOON:057:1,2014-04-06T14:00:00Z,28.4460,-96.3961,3.741,1111122 
TCOON,ioos:station:TCOON:057:1,2014-04-06T15:00:00Z,28.4460,-96.3961,3.767,1111122 
TCOON,ioos:station:TCOON:057:1,2014-04-06T16:00:00Z,28.4460,-96.3961,3.787,1111122 
TCOON,ioos:station:TCOON:057:1,2014-04-06T17:00:00Z,28.4460,-96.3961,3.816,1111122 
TCOON,ioos:station:TCOON:057:1,2014-04-06T18:00:00Z,28.4460,-96.3961,3.842,1111122 
TCOON,ioos:station:TCOON:057:1,2014-04-06T19:00:00Z,28.4460,-96.3961,3.854,1111122 
TCOON,ioos:station:TCOON:057:1,2014-04-06T20:00:00Z,28.4460,-96.3961,3.882,1111122 
TCOON,ioos:station:TCOON:057:1,2014-04-06T21:00:00Z,28.4460,-96.3961,3.886,1111122 
TCOON,ioos:station:TCOON:057:1,2014-04-06T22:00:00Z,28.4460,-96.3961,3.941,1111122 
TCOON,ioos:station:TCOON:057:1,2014-04-06T23:00:00Z,28.4460,-96.3961,3.938,1111122 
TCOON,ioos:station:TCOON:057:1,2014-04-07T00:00:00Z,28.4460,-96.3961,3.92,1111122 
TCOON,ioos:station:TCOON:057:1,2014-04-07T01:00:00Z,28.4460,-96.3961,3.846,1111122 
TCOON,ioos:station:TCOON:057:1,2014-04-07T02:00:00Z,28.4460,-96.3961,3.823,1111122 
TCOON,ioos:station:TCOON:057:1,2014-04-07T03:00:00Z,28.4460,-96.3961,3.79,1111122 
TCOON,ioos:station:TCOON:057:1,2014-04-07T04:00:00Z,28.4460,-96.3961,3.786,1111122 
TCOON,ioos:station:TCOON:057:1,2014-04-07T05:00:00Z,28.4460,-96.3961,3.741,1111122 
TCOON,ioos:station:TCOON:057:1,2014-04-07T06:00:00Z,28.4460,-96.3961,3.687,1111122 
TCOON,ioos:station:TCOON:057:1,2014-04-07T07:00:00Z,28.4460,-96.3961,3.672,1111122 
TCOON,ioos:station:TCOON:057:1,2014-04-07T08:00:00Z,28.4460,-96.3961,3.605,1111122 
TCOON,ioos:station:TCOON:057:1,2014-04-07T09:00:00Z,28.4460,-96.3961,3.591,1111122 
TCOON,ioos:station:TCOON:057:1,2014-04-07T10:00:00Z,28.4460,-96.3961,3.578,1111122 
TCOON,ioos:station:TCOON:057:1,2014-04-07T11:00:00Z,28.4460,-96.3961,3.563,1111122 
TCOON,ioos:station:TCOON:057:1,2014-04-07T12:00:00Z,28.4460,-96.3961,3.579,1111122 
TCOON,ioos:station:TCOON:057:1,2014-04-07T13:00:00Z,28.4460,-96.3961,3.588,1111122 
TCOON,ioos:station:TCOON:057:1,2014-04-07T14:00:00Z,28.4460,-96.3961,3.6,1111122 
TCOON,ioos:station:TCOON:057:1,2014-04-07T15:00:00Z,28.4460,-96.3961,3.636,1111122 
TCOON,ioos:station:TCOON:057:1,2014-04-07T16:00:00Z,28.4460,-96.3961,3.664,1111122 
TCOON,ioos:station:TCOON:057:1,2014-04-07T17:00:00Z,28.4460,-96.3961,3.668,1111122 
TCOON,ioos:station:TCOON:057:1,2014-04-07T18:00:00Z,28.4460,-96.3961,3.672,1111122 
TCOON,ioos:station:TCOON:057:1,2014-04-07T19:00:00Z,28.4460,-96.3961,3.685,1111122 
TCOON,ioos:station:TCOON:057:1,2014-04-07T20:00:00Z,28.4460,-96.3961,3.695,1111122 
TCOON,ioos:station:TCOON:057:1,2014-04-07T21:00:00Z,28.4460,-96.3961,3.703,1111122 
TCOON,ioos:station:TCOON:057:1,2014-04-07T22:00:00Z,28.4460,-96.3961,3.716,1111122 
TCOON,ioos:station:TCOON:057:1,2014-04-07T23:00:00Z,28.4460,-96.3961,3.695,1111122 
TCOON,ioos:station:TCOON:057:1,2014-04-08T00:00:00Z,28.4460,-96.3961,3.709,1111122 
TCOON,ioos:station:TCOON:057:1,2014-04-08T01:00:00Z,28.4460,-96.3961,3.697,1111122 
TCOON,ioos:station:TCOON:057:1,2014-04-08T02:00:00Z,28.4460,-96.3961,3.685,1111122 
TCOON,ioos:station:TCOON:057:1,2014-04-08T03:00:00Z,28.4460,-96.3961,3.67,1111122 
TCOON,ioos:station:TCOON:057:1,2014-04-08T04:00:00Z,28.4460,-96.3961,3.647,1111122 
TCOON,ioos:station:TCOON:057:1,2014-04-08T05:00:00Z,28.4460,-96.3961,3.703,1111122 
TCOON,ioos:station:TCOON:057:1,2014-04-08T06:06:00Z,28.4460,-96.3961,3.595,1111122 
TCOON,ioos:station:TCOON:057:1,2014-04-08T07:00:00Z,28.4460,-96.3961,3.552,1111122 
TCOON,ioos:station:TCOON:057:1,2014-04-08T08:00:00Z,28.4460,-96.3961,3.534,1111122 
TCOON,ioos:station:TCOON:057:1,2014-04-08T09:00:00Z,28.4460,-96.3961,3.487,1111122 
TCOON,ioos:station:TCOON:057:1,2014-04-08T10:00:00Z,28.4460,-96.3961,3.461,1111122 
TCOON,ioos:station:TCOON:057:1,2014-04-08T11:00:00Z,28.4460,-96.3961,3.433,1111122 
TCOON,ioos:station:TCOON:057:1,2014-04-08T12:00:00Z,28.4460,-96.3961,3.439,1111122 
TCOON,ioos:station:TCOON:057:1,2014-04-08T13:00:00Z,28.4460,-96.3961,3.433,1111122 
TCOON,ioos:station:TCOON:057:1,2014-04-08T14:00:00Z,28.4460,-96.3961,3.427,1111122 
TCOON,ioos:station:TCOON:057:1,2014-04-08T15:00:00Z,28.4460,-96.3961,3.431,1111122 
TCOON,ioos:station:TCOON:057:1,2014-04-08T16:00:00Z,28.4460,-96.3961,3.456,1111122 
TCOON,ioos:station:TCOON:057:1,2014-04-08T17:00:00Z,28.4460,-96.3961,3.551,1111122 
TCOON,ioos:station:TCOON:057:1,2014-04-08T18:00:00Z,28.4460,-96.3961,3.508,1111122 
TCOON,ioos:station:TCOON:057:1,2014-04-08T19:00:00Z,28.4460,-96.3961,3.523,1111122 
TCOON,ioos:station:TCOON:057:1,2014-04-08T20:00:00Z,28.4460,-96.3961,3.508,1111122 
TCOON,ioos:station:TCOON:057:1,2014-04-08T21:00:00Z,28.4460,-96.3961,3.519,1111122 
TCOON,ioos:station:TCOON:057:1,2014-04-08T22:00:00Z,28.4460,-96.3961,3.5,1111122 
TCOON,ioos:station:TCOON:057:1,2014-04-08T23:00:00Z,28.4460,-96.3961,3.491,1111122 
TCOON,ioos:station:TCOON:057:1,2014-04-09T00:00:00Z,28.4460,-96.3961,3.465,1111122 
TCOON,ioos:station:TCOON:057:1,2014-04-09T01:00:00Z,28.4460,-96.3961,3.425,1111122 
TCOON,ioos:station:TCOON:057:1,2014-04-09T02:00:00Z,28.4460,-96.3961,3.394,1111122 
TCOON,ioos:station:TCOON:057:1,2014-04-09T03:00:00Z,28.4460,-96.3961,3.387,1111122 
TCOON,ioos:station:TCOON:057:1,2014-04-09T04:00:00Z,28.4460,-96.3961,3.377,1111122 
TCOON,ioos:station:TCOON:057:1,2014-04-09T05:00:00Z,28.4460,-96.3961,3.374,1111122 
TCOON,ioos:station:TCOON:057:1,2014-04-09T06:06:00Z,28.4460,-96.3961,3.369,1111122 
TCOON,ioos:station:TCOON:057:1,2014-04-09T07:00:00Z,28.4460,-96.3961,3.342,1111122 
TCOON,ioos:station:TCOON:057:1,2014-04-09T08:00:00Z,28.4460,-96.3961,3.328,1111122 
TCOON,ioos:station:TCOON:057:1,2014-04-09T09:00:00Z,28.4460,-96.3961,3.308,1111122 
TCOON,ioos:station:TCOON:057:1,2014-04-09T10:00:00Z,28.4460,-96.3961,3.3,1111122 
TCOON,ioos:station:TCOON:057:1,2014-04-09T11:00:00Z,28.4460,-96.3961,3.271,1111122 
TCOON,ioos:station:TCOON:057:1,2014-04-09T12:00:00Z,28.4460,-96.3961,3.266,1111122 
TCOON,ioos:station:TCOON:057:1,2014-04-09T13:00:00Z,28.4460,-96.3961,3.254,1111122 
TCOON,ioos:station:TCOON:057:1,2014-04-09T14:00:00Z,28.4460,-96.3961,3.26,1111122 
TCOON,ioos:station:TCOON:057:1,2014-04-09T15:00:00Z,28.4460,-96.3961,3.249,1111122 
TCOON,ioos:station:TCOON:057:1,2014-04-09T16:00:00Z,28.4460,-96.3961,3.273,1111122 
TCOON,ioos:station:TCOON:057:1,2014-04-09T17:00:00Z,28.4460,-96.3961,3.276,1111122 
TCOON,ioos:station:TCOON:057:1,2014-04-09T18:00:00Z,28.4460,-96.3961,3.302,1111122 
TCOON,ioos:station:TCOON:057:1,2014-04-09T19:00:00Z,28.4460,-96.3961,3.317,1111122 
TCOON,ioos:station:TCOON:057:1,2014-04-09T20:00:00Z,28.4460,-96.3961,3.36,1111122 
TCOON,ioos:station:TCOON:057:1,2014-04-09T21:00:00Z,28.4460,-96.3961,3.383,1111122 
TCOON,ioos:station:TCOON:057:1,2014-04-09T22:00:00Z,28.4460,-96.3961,3.41,1111122 
TCOON,ioos:station:TCOON:057:1,2014-04-10T00:00:00Z,28.4460,-96.3961,3.421,1111122 
TCOON,ioos:station:TCOON:057:1,2014-04-10T02:00:00Z,28.4460,-96.3961,3.438,1111122 
TCOON,ioos:station:TCOON:057:1,2014-04-10T03:00:00Z,28.4460,-96.3961,3.432,1111122 
TCOON,ioos:station:TCOON:057:1,2014-04-10T04:00:00Z,28.4460,-96.3961,3.446,1111122 
TCOON,ioos:station:TCOON:057:1,2014-04-10T05:00:00Z,28.4460,-96.3961,3.45,1111122 
TCOON,ioos:station:TCOON:057:1,2014-04-10T06:12:00Z,28.4460,-96.3961,3.456,1111122 
TCOON,ioos:station:TCOON:057:1,2014-04-10T07:00:00Z,28.4460,-96.3961,3.464,1111122 
TCOON,ioos:station:TCOON:057:1,2014-04-10T08:00:00Z,28.4460,-96.3961,3.469,1111122 
TCOON,ioos:station:TCOON:057:1,2014-04-10T09:00:00Z,28.4460,-96.3961,3.471,1111122 
TCOON,ioos:station:TCOON:057:1,2014-04-10T10:00:00Z,28.4460,-96.3961,3.475,1111122 
TCOON,ioos:station:TCOON:057:1,2014-04-10T11:00:00Z,28.4460,-96.3961,3.473,1111122 
TCOON,ioos:station:TCOON:057:1,2014-04-10T12:00:00Z,28.4460,-96.3961,3.468,1111122 
TCOON,ioos:station:TCOON:057:1,2014-04-10T13:00:00Z,28.4460,-96.3961,3.478,1111122 
TCOON,ioos:station:TCOON:057:1,2014-04-10T14:00:00Z,28.4460,-96.3961,3.474,1111122 
TCOON,ioos:station:TCOON:057:1,2014-04-10T15:00:00Z,28.4460,-96.3961,3.487,1111122 
TCOON,ioos:station:TCOON:057:1,2014-04-10T16:00:00Z,28.4460,-96.3961,3.47,1111122 
TCOON,ioos:station:TCOON:057:1,2014-04-10T17:00:00Z,28.4460,-96.3961,3.49,1111122 
TCOON,ioos:station:TCOON:057:1,2014-04-10T18:00:00Z,28.4460,-96.3961,3.514,1111122 
TCOON,ioos:station:TCOON:057:1,2014-04-10T19:00:00Z,28.4460,-96.3961,3.533,1111122 
TCOON,ioos:station:TCOON:057:1,2014-04-10T20:00:00Z,28.4460,-96.3961,3.557,1111122 
TCOON,ioos:station:TCOON:057:1,2014-04-10T21:00:00Z,28.4460,-96.3961,3.568,1111122 
TCOON,ioos:station:TCOON:057:1,2014-04-10T22:00:00Z,28.4460,-96.3961,3.584,1111122 
TCOON,ioos:station:TCOON:057:1,2014-04-10T23:00:00Z,28.4460,-96.3961,3.579,1111122 
TCOON,ioos:station:TCOON:057:1,2014-04-11T00:00:00Z,28.4460,-96.3961,3.561,1111122 
TCOON,ioos:station:TCOON:057:1,2014-04-11T01:00:00Z,28.4460,-96.3961,3.55,1111122 
TCOON,ioos:station:TCOON:057:1,2014-04-11T02:00:00Z,28.4460,-96.3961,3.559,1111122 
TCOON,ioos:station:TCOON:057:1,2014-04-11T03:00:00Z,28.4460,-96.3961,3.547,1111122 
TCOON,ioos:station:TCOON:057:1,2014-04-11T04:00:00Z,28.4460,-96.3961,3.539,1111122 
TCOON,ioos:station:TCOON:057:1,2014-04-11T05:00:00Z,28.4460,-96.3961,3.544,1111122 
TCOON,ioos:station:TCOON:057:1,2014-04-11T06:06:00Z,28.4460,-96.3961,3.56,1111122 
TCOON,ioos:station:TCOON:057:1,2014-04-11T07:00:00Z,28.4460,-96.3961,3.571,1111122 
TCOON,ioos:station:TCOON:057:1,2014-04-11T08:00:00Z,28.4460,-96.3961,3.579,1111122 
TCOON,ioos:station:TCOON:057:1,2014-04-11T09:00:00Z,28.4460,-96.3961,3.578,1111122 
TCOON,ioos:station:TCOON:057:1,2014-04-11T10:00:00Z,28.4460,-96.3961,3.562,1111122 
TCOON,ioos:station:TCOON:057:1,2014-04-11T11:00:00Z,28.4460,-96.3961,3.546,1111122 
TCOON,ioos:station:TCOON:057:1,2014-04-11T12:00:00Z,28.4460,-96.3961,3.547,1111122 
TCOON,ioos:station:TCOON:057:1,2014-04-11T13:00:00Z,28.4460,-96.3961,3.531,1111122 
TCOON,ioos:station:TCOON:057:1,2014-04-11T14:00:00Z,28.4460,-96.3961,3.533,1111122 
TCOON,ioos:station:TCOON:057:1,2014-04-11T15:00:00Z,28.4460,-96.3961,3.52,1111122 
TCOON,ioos:station:TCOON:057:1,2014-04-11T16:00:00Z,28.4460,-96.3961,3.518,1111122 
TCOON,ioos:station:TCOON:057:1,2014-04-11T17:00:00Z,28.4460,-96.3961,3.514,1111122 
TCOON,ioos:station:TCOON:057:1,2014-04-11T18:00:00Z,28.4460,-96.3961,3.53,1111122 
TCOON,ioos:station:TCOON:057:1,2014-04-11T19:00:00Z,28.4460,-96.3961,3.533,1111122 
TCOON,ioos:station:TCOON:057:1,2014-04-11T20:00:00Z,28.4460,-96.3961,3.547,1111122 
TCOON,ioos:station:TCOON:057:1,2014-04-11T21:00:00Z,28.4460,-96.3961,3.567,1111122 
TCOON,ioos:station:TCOON:057:1,2014-04-11T22:00:00Z,28.4460,-96.3961,3.548,1111122 
TCOON,ioos:station:TCOON:057:1,2014-04-11T23:00:00Z,28.4460,-96.3961,3.559,1111122 
TCOON,ioos:station:TCOON:057:1,2014-04-12T00:00:00Z,28.4460,-96.3961,3.54,1111122 
TCOON,ioos:station:TCOON:057:1,2014-04-12T01:00:00Z,28.4460,-96.3961,3.534,1111122 
TCOON,ioos:station:TCOON:057:1,2014-04-12T02:00:00Z,28.4460,-96.3961,3.512,1111122 
TCOON,ioos:station:TCOON:057:1,2014-04-12T03:00:00Z,28.4460,-96.3961,3.497,1111122 
TCOON,ioos:station:TCOON:057:1,2014-04-12T04:00:00Z,28.4460,-96.3961,3.483,1111122 
TCOON,ioos:station:TCOON:057:1,2014-04-12T05:00:00Z,28.4460,-96.3961,3.487,1111122 
TCOON,ioos:station:TCOON:057:1,2014-04-12T06:00:00Z,28.4460,-96.3961,3.497,1111122 
TCOON,ioos:station:TCOON:057:1,2014-04-12T07:06:00Z,28.4460,-96.3961,3.514,1111122 
TCOON,ioos:station:TCOON:057:1,2014-04-12T08:18:00Z,28.4460,-96.3961,3.527,1111122 
TCOON,ioos:station:TCOON:057:1,2014-04-12T09:00:00Z,28.4460,-96.3961,3.536,1111122 
TCOON,ioos:station:TCOON:057:1,2014-04-12T10:00:00Z,28.4460,-96.3961,3.535,1111122 
TCOON,ioos:station:TCOON:057:1,2014-04-12T11:00:00Z,28.4460,-96.3961,3.528,1111122 
TCOON,ioos:station:TCOON:057:1,2014-04-12T14:00:00Z,28.4460,-96.3961,3.521,1111122 
TCOON,ioos:station:TCOON:057:1,2014-04-12T15:00:00Z,28.4460,-96.3961,3.518,1111122 
TCOON,ioos:station:TCOON:057:1,2014-04-12T16:00:00Z,28.4460,-96.3961,3.51,1111122 
TCOON,ioos:station:TCOON:057:1,2014-04-12T17:00:00Z,28.4460,-96.3961,3.517,1111122 
TCOON,ioos:station:TCOON:057:1,2014-04-12T18:00:00Z,28.4460,-96.3961,3.527,1111122 
TCOON,ioos:station:TCOON:057:1,2014-04-12T19:00:00Z,28.4460,-96.3961,3.553,1111122 
TCOON,ioos:station:TCOON:057:1,2014-04-12T20:00:00Z,28.4460,-96.3961,3.565,1111122 
TCOON,ioos:station:TCOON:057:1,2014-04-12T21:00:00Z,28.4460,-96.3961,3.576,1111122 
TCOON,ioos:station:TCOON:057:1,2014-04-12T22:00:00Z,28.4460,-96.3961,3.577,1111122 
TCOON,ioos:station:TCOON:057:1,2014-04-12T23:00:00Z,28.4460,-96.3961,3.588,1111122 
TCOON,ioos:station:TCOON:057:1,2014-04-13T00:00:00Z,28.4460,-96.3961,3.578,1111122 
TCOON,ioos:station:TCOON:057:1,2014-04-13T01:00:00Z,28.4460,-96.3961,3.576,1111122 
TCOON,ioos:station:TCOON:057:1,2014-04-13T02:00:00Z,28.4460,-96.3961,3.58,1111122 